Location: Alulod
(14.2076°N, 120.8898°E)
Time: 03:21:03
(UTC+00:00)

USA 238 DEB - Pass Details

Date: 21 March 2026
Orbit: 883 x 1328 km, 63.4° (Epoch: 10 January)

Event Time Altitude Azimuth Distance (km) Brightness Sun altitude
Rises 19:00:43 0° 353° (N) 4,158 6.9 -43.8°
Reaches altitude 10° 19:03:53 10° 3° (N) 3,246 6.3 -43.0°
Maximum altitude 19:10:39 30° 62° (ENE) 2,156 5.6 -41.4°
Drops below altitude 10° 19:17:37 10° 120° (ESE) 3,353 6.7 -39.8°
Sets 19:20:54 0° 130° (SE) 4,317 7.3 -39.0°
